,,Stat5,,Stat1,,Stat2,,Stat3,,Stat4,,Wind1,,Wind1,
time,status,PA1M_AVG,status,PR1M_SUM,status,RH1M_AVG,status,SR1M_AVG,status,TA1M_AVG,status,W1dAve1m,status,W1sAve1m,
2003-08-12, 00:00:00,VALID,919.316,VALID,0,VALID,99.0771,VALID,-0.0339617,VALID,19.6719,VALID,151,VALID,0.670847,
2003-08-12, 00:01:00,VALID,919.302,VALID,0,VALID,99.0631,VALID,-0.0169808,VALID,19.6689,VALID,141,VALID,0.544118,
2003-08-12, 00:02:00,VALID,919.277,VALID,0,VALID,99.0542,VALID,-0.0169808,VALID,19.6491,VALID,139,VALID,0.303085,
2003-08-12, 00:03:00,VALID,919.281,VALID,0,VALID,99.058,VALID,-0.0339617,VALID,19.6361,VALID,139,VALID,0.0676339,
2003-08-12, 00:04:00,VALID,919.262,VALID,0,VALID,99.1152,VALID,-0.0339617,VALID,19.6364,VALID,139,VALID,0.000919118,
2003-08-12, 00:05:00,VALID,919.253,VALID,0,VALID,99.1496,VALID,-0.0169808,VALID,19.6366,VALID,139,VALID,0.228002,
2003-08-12, 00:06:00,VALID,919.267,VALID,0,VALID,99.1559,VALID,-0.0339617,VALID,19.6269,VALID,139,VALID,0.121528,
2003-08-12, 00:07:00,VALID,919.282,VALID,0,VALID,99.1572,VALID,-0.0339617,VALID,19.6235,VALID,139,VALID,0.0238487,
2003-08-12, 00:08:00,VALID,919.308,VALID,0,VALID,99.1928,VALID,-0.0169808,VALID,19.6168,VALID,139,VALID,0.00316723,
2003-08-12, 00:09:00,VALID,919.321,VALID,0,VALID,99.2424,VALID,-0.0339617,VALID,19.62,VALID,139,VALID,0.0246711,
2003-08-12, 00:10:00,VALID,919.335,VALID,0,VALID,99.2564,VALID,0.0169808,VALID,19.6322,VALID,139,VALID,0.0399554,
2003-08-12, 00:11:00,VALID,919.331,VALID,0,VALID,99.236,VALID,0.0509425,VALID,19.6252,VALID,139,VALID,0.422768,
2003-08-12, 00:12:00,VALID,919.325,VALID,0,VALID,99.2576,VALID,0.0509425,VALID,19.6125,VALID,139,VALID,0.0128205,
2003-08-12, 00:13:00,VALID,919.32,VALID,0,VALID,99.2729,VALID,0.0509425,VALID,19.6155,VALID,139,VALID,0.103516,
2003-08-12, 00:14:00,VALID,919.303,VALID,0,VALID,99.2843,VALID,0.0169808,VALID,19.6024,VALID,139,VALID,0.0633224,
2003-08-12, 00:15:00,VALID,919.285,VALID,0,VALID,99.3339,VALID,0.0849042,VALID,19.6026,VALID,139,VALID,0,
2003-08-12, 00:16:00,VALID,919.273,VALID,0,VALID,99.3543,VALID,0.0679233,VALID,19.6026,VALID,139,VALID,0,
2003-08-12, 00:17:00,VALID,919.263,VALID,0,VALID,99.395,VALID,0.0679233,VALID,19.6227,VALID,138,VALID,0,
2003-08-12, 00:18:00,VALID,919.252,VALID,0,VALID,99.442,VALID,0.0339617,VALID,19.6287,VALID,120,VALID,0.0267857,
2003-08-12, 00:19:00,VALID,919.253,VALID,0,VALID,99.4853,VALID,0.0509425,VALID,19.6448,VALID,37,VALID,0.214143,
2003-08-12, 00:20:00,VALID,919.234,VALID,0,VALID,99.5094,VALID,0.0679233,VALID,19.654,VALID,37,VALID,0.259549,
2003-08-12, 00:21:00,VALID,919.214,VALID,0,VALID,99.5069,VALID,0.0849042,VALID,19.657,VALID,37,VALID,0.051398,
2003-08-12, 00:22:00,VALID,919.201,VALID,0,VALID,99.3899,VALID,0.0679233,VALID,19.655,VALID,55,VALID,0.263936,
2003-08-12, 00:23:00,VALID,919.159,VALID,0,VALID,99.306,VALID,0.0849042,VALID,19.5954,VALID,85,VALID,0.516036,
2003-08-12, 00:24:00,VALID,919.137,VALID,0,VALID,99.3263,VALID,0.0679233,VALID,19.5634,VALID,85,VALID,0.360045,
2003-08-12, 00:25:00,VALID,919.122,VALID,0,VALID,99.3746,VALID,0,VALID,19.5455,VALID,85,VALID,0.172991,
2003-08-12, 00:26:00,VALID,919.092,VALID,0,VALID,99.3962,VALID,-0.0169808,VALID,19.5591,VALID,61,VALID,0.338141,
2003-08-12, 00:27:00,VALID,919.069,VALID,0,VALID,99.409,VALID,-0.0169808,VALID,19.536,VALID,49,VALID,0.464627,
2003-08-12, 00:28:00,VALID,919.061,VALID,0,VALID,99.4242,VALID,-0.0169808,VALID,19.5462,VALID,37,VALID,0.499383,
2003-08-12, 00:29:00,VALID,919.053,VALID,0,VALID,99.4446,VALID,-0.0509425,VALID,19.5427,VALID,36,VALID,0.461571,
2003-08-12, 00:30:00,VALID,919.051,VALID,0,VALID,99.4344,VALID,-0.0169808,VALID,19.5268,VALID,36,VALID,0.479235,
2003-08-12, 00:31:00,VALID,919.048,VALID,0,VALID,99.4496,VALID,-0.0339617,VALID,19.5236,VALID,36,VALID,0.32567,
2003-08-12, 00:32:00,VALID,919.031,VALID,0,VALID,99.4382,VALID,-0.0509425,VALID,19.5102,VALID,36,VALID,0.22433,
2003-08-12, 00:33:00,VALID,919.046,VALID,0,VALID,99.4662,VALID,-0.0339617,VALID,19.4945,VALID,36,VALID,0.254006,
2003-08-12, 00:34:00,VALID,919.034,VALID,0,VALID,99.4827,VALID,-0.0339617,VALID,19.5015,VALID,27,VALID,0.39605,
2003-08-12, 00:35:00,VALID,919.025,VALID,0,VALID,99.4865,VALID,-0.0509425,VALID,19.4975,VALID,22,VALID,0.487664,
2003-08-12, 00:36:00,VALID,919.011,VALID,0,VALID,99.4776,VALID,0,VALID,19.4948,VALID,22,VALID,0.66364,
2003-08-12, 00:37:00,VALID,919.004,VALID,0,VALID,99.4814,VALID,-0.0509425,VALID,19.4814,VALID,21,VALID,0.729441,
2003-08-12, 00:38:00,VALID,918.992,VALID,0,VALID,99.4853,VALID,-0.0679233,VALID,19.4754,VALID,21,VALID,0.65067,
2003-08-12, 00:39:00,VALID,918.977,VALID,0,VALID,99.5018,VALID,-0.0509425,VALID,19.4727,VALID,35,VALID,0.720312,
2003-08-12, 00:40:00,VALID,918.976,VALID,0,VALID,99.5145,VALID,0.0509425,VALID,19.464,VALID,28,VALID,0.663261,
2003-08-12, 00:41:00,VALID,918.963,VALID,0,VALID,99.5577,VALID,0.0339617,VALID,19.4603,VALID,35,VALID,0.561198,
2003-08-12, 00:42:00,VALID,918.96,VALID,0,VALID,99.5743,VALID,0.0339617,VALID,19.467,VALID,22,VALID,0.621299,
2003-08-12, 00:43:00,VALID,918.947,VALID,0,VALID,99.5628,VALID,0.0509425,VALID,19.4672,VALID,26,VALID,0.597551,
2003-08-12, 00:44:00,VALID,918.943,VALID,0,VALID,99.573,VALID,0.0679233,VALID,19.4541,VALID,37,VALID,0.640831,
2003-08-12, 00:45:00,VALID,918.921,VALID,0,VALID,99.5692,VALID,0.0679233,VALID,19.4342,VALID,32,VALID,0.712946,
2003-08-12, 00:46:00,VALID,918.897,VALID,0,VALID,99.5679,VALID,0.0849042,VALID,19.434,VALID,28,VALID,0.827679,
2003-08-12, 00:47:00,VALID,918.871,VALID,0,VALID,99.587,VALID,0.101885,VALID,19.428,VALID,28,VALID,0.589143,
2003-08-12, 00:48:00,VALID,918.843,VALID,0,VALID,99.5895,VALID,0.0679233,VALID,19.4213,VALID,27,VALID,0.490885,
2003-08-12, 00:49:00,VALID,918.83,VALID,0,VALID,99.6099,VALID,0.0509425,VALID,19.4116,VALID,30,VALID,0.323191,
2003-08-12, 00:50:00,VALID,918.812,VALID,0,VALID,99.5819,VALID,0.0849042,VALID,19.4019,VALID,42,VALID,0.373944,
2003-08-12, 00:51:00,VALID,918.793,VALID,0,VALID,99.5666,VALID,0.0849042,VALID,19.386,VALID,86,VALID,0.630345,
2003-08-12, 00:52:00,VALID,918.793,VALID,0,VALID,99.573,VALID,0.0679233,VALID,19.3801,VALID,100,VALID,0.577679,
2003-08-12, 00:53:00,VALID,918.783,VALID,0,VALID,99.6124,VALID,0.0339617,VALID,19.3575,VALID,101,VALID,0.834821,
2003-08-12, 00:54:00,VALID,918.776,VALID,0,VALID,99.6391,VALID,0.0509425,VALID,19.3473,VALID,98,VALID,0.828926,
2003-08-12, 00:55:00,VALID,918.765,VALID,0,VALID,99.6976,VALID,0,VALID,19.3617,VALID,104,VALID,0.834418,
2003-08-12, 00:56:00,VALID,918.761,VALID,0,VALID,99.7294,VALID,-0.0169808,VALID,19.3679,VALID,121,VALID,0.514803,
2003-08-12, 00:57:00,VALID,918.762,VALID,0,VALID,99.7587,VALID,-0.0169808,VALID,19.3711,VALID,132,VALID,0.820101,
2003-08-12, 00:58:00,VALID,918.767,VALID,0,VALID,99.7854,VALID,-0.0339617,VALID,19.3843,VALID,155,VALID,0.897204,
2003-08-12, 00:59:00,VALID,918.781,VALID,0,VALID,99.8121,VALID,-0.0339617,VALID,19.4036,VALID,158,VALID,0.927679,
2003-08-12, 01:00:00,VALID,918.796,VALID,0,VALID,99.8311,VALID,-0.0169808,VALID,19.4165,VALID,173,VALID,0.834375,
2003-08-12, 01:01:00,VALID,918.83,VALID,0,VALID,99.84,VALID,-0.0849042,VALID,19.4233,VALID,176,VALID,0.905649,
2003-08-12, 01:02:00,VALID,918.856,VALID,0,VALID,99.8388,VALID,-0.0339617,VALID,19.4302,VALID,175,VALID,0.981988,
2003-08-12, 01:03:00,VALID,918.891,VALID,0,VALID,99.8413,VALID,-0.0509425,VALID,19.4401,VALID,182,VALID,0.708265,
2003-08-12, 01:04:00,VALID,918.919,VALID,0,VALID,99.854,VALID,-0.0509425,VALID,19.4297,VALID,185,VALID,0.409206,
2003-08-12, 01:05:00,VALID,918.952,VALID,0,VALID,99.8667,VALID,0,VALID,19.4454,VALID,213,VALID,0.448396,
2003-08-12, 01:06:00,VALID,918.958,VALID,0,VALID,99.8871,VALID,-0.0169808,VALID,19.4687,VALID,171,VALID,0.358929,
2003-08-12, 01:07:00,VALID,918.963,VALID,0,VALID,99.8782,VALID,-0.0849042,VALID,19.4687,VALID,174,VALID,0.688839,
2003-08-12, 01:08:00,VALID,918.952,VALID,0,VALID,99.8845,VALID,-0.0509425,VALID,19.4719,VALID,171,VALID,0.580329,
2003-08-12, 01:09:00,VALID,918.936,VALID,0,VALID,99.8871,VALID,-0.0509425,VALID,19.4588,VALID,166,VALID,0.230469,
2003-08-12, 01:10:00,VALID,918.925,VALID,0,VALID,99.896,VALID,-0.0509425,VALID,19.4682,VALID,165,VALID,0.141653,
2003-08-12, 01:11:00,VALID,918.911,VALID,0,VALID,99.9011,VALID,-0.0509425,VALID,19.495,VALID,165,VALID,0.00929054,
2003-08-12, 01:12:00,VALID,918.9,VALID,0,VALID,99.924,VALID,-0.0679233,VALID,19.4911,VALID,165,VALID,0,
2003-08-12, 01:13:00,VALID,918.872,VALID,0,VALID,99.9252,VALID,-0.0339617,VALID,19.5077,VALID,165,VALID,0,
2003-08-12, 01:14:00,VALID,918.837,VALID,0,VALID,99.9265,VALID,-0.0339617,VALID,19.5035,VALID,165,VALID,0,
2003-08-12, 01:15:00,VALID,918.822,VALID,0,VALID,99.9354,VALID,-0.0849042,VALID,19.5139,VALID,165,VALID,0.236178,
2003-08-12, 01:16:00,VALID,918.795,VALID,0,VALID,99.9354,VALID,-0.0679233,VALID,19.5045,VALID,165,VALID,0.63954,
2003-08-12, 01:17:00,VALID,918.774,VALID,0,VALID,99.9227,VALID,-0.0509425,VALID,19.5005,VALID,164,VALID,0.606497,
2003-08-12, 01:18:00,VALID,918.743,VALID,0,VALID,99.9176,VALID,-0.0849042,VALID,19.4878,VALID,158,VALID,0.736486,
2003-08-12, 01:19:00,VALID,918.735,VALID,0,VALID,99.9163,VALID,-0.0339617,VALID,19.4853,VALID,154,VALID,0.801604,
2003-08-12, 01:20:00,VALID,918.719,VALID,0,VALID,99.9176,VALID,-0.101885,VALID,19.4781,VALID,147,VALID,0.429018,
2003-08-12, 01:21:00,VALID,918.729,VALID,0,VALID,99.9214,VALID,-0.0679233,VALID,19.4881,VALID,142,VALID,0.391295,
2003-08-12, 01:22:00,VALID,918.723,VALID,0,VALID,99.9303,VALID,-0.0849042,VALID,19.4878,VALID,122,VALID,0.696114,
2003-08-12, 01:23:00,VALID,918.716,VALID,0,VALID,99.9278,VALID,-0.0339617,VALID,19.4878,VALID,116,VALID,0.700304,
2003-08-12, 01:24:00,VALID,918.709,VALID,0,VALID,99.9227,VALID,-0.0679233,VALID,19.4916,VALID,133,VALID,0.917352,
2003-08-12, 01:25:00,VALID,918.707,VALID,0,VALID,99.9252,VALID,0.0339617,VALID,19.4933,VALID,133,VALID,1.01964,
2003-08-12, 01:26:00,VALID,918.702,VALID,0,VALID,99.9316,VALID,0.0169808,VALID,19.4866,VALID,140,VALID,1.35218,
2003-08-12, 01:27:00,VALID,918.688,VALID,0,VALID,99.9278,VALID,0.0509425,VALID,19.4764,VALID,143,VALID,1.47902,
2003-08-12, 01:28:00,VALID,918.675,VALID,0,VALID,99.924,VALID,0.0509425,VALID,19.4734,VALID,125,VALID,0.828125,
2003-08-12, 01:29:00,VALID,918.667,VALID,0,VALID,99.9418,VALID,0.0339617,VALID,19.4799,VALID,139,VALID,1.03145,
2003-08-12, 01:30:00,VALID,918.647,VALID,0,VALID,99.9443,VALID,0.0509425,VALID,19.4908,VALID,110,VALID,0.6875,
2003-08-12, 01:31:00,VALID,918.628,VALID,0,VALID,99.9418,VALID,0.0679233,VALID,19.4864,VALID,110,VALID,0.75884,
2003-08-12, 01:32:00,VALID,918.622,VALID,0,VALID,99.9456,VALID,0.0169808,VALID,19.4797,VALID,122,VALID,0.464105,
2003-08-12, 01:33:00,VALID,918.618,VALID,0,VALID,99.957,VALID,0.0679233,VALID,19.4764,VALID,136,VALID,0.978824,
2003-08-12, 01:34:00,VALID,918.621,VALID,0,VALID,99.943,VALID,-0.0169808,VALID,19.4739,VALID,141,VALID,0.476786,
2003-08-12, 01:35:00,VALID,918.63,VALID,0,VALID,99.9392,VALID,0.0169808,VALID,19.4675,VALID,120,VALID,0.806473,
2003-08-12, 01:36:00,VALID,918.643,VALID,0,VALID,99.9379,VALID,0.0339617,VALID,19.4675,VALID,135,VALID,0.772035,
2003-08-12, 01:37:00,VALID,918.651,VALID,0,VALID,99.9392,VALID,0.0169808,VALID,19.464,VALID,155,VALID,0.733724,
2003-08-12, 01:38:00,VALID,918.66,VALID,0,VALID,99.9468,VALID,0.0509425,VALID,19.4638,VALID,136,VALID,1.07792,
2003-08-12, 01:39:00,VALID,918.655,VALID,0,VALID,99.9507,VALID,0.0169808,VALID,19.467,VALID,158,VALID,0.987753,
2003-08-12, 01:40:00,VALID,918.65,VALID,0,VALID,99.9621,VALID,0.0339617,VALID,19.4772,VALID,138,VALID,0.96875,
2003-08-12, 01:41:00,VALID,918.656,VALID,0,VALID,99.9532,VALID,0.0339617,VALID,19.4811,VALID,116,VALID,1.01942,
2003-08-12, 01:42:00,VALID,918.648,VALID,0,VALID,99.9519,VALID,0,VALID,19.4705,VALID,85,VALID,0.705357,
2003-08-12, 01:43:00,VALID,918.646,VALID,0,VALID,99.9468,VALID,0,VALID,19.4777,VALID,91,VALID,0.917869,
2003-08-12, 01:44:00,VALID,918.643,VALID,0,VALID,99.9507,VALID,0.0509425,VALID,19.4643,VALID,96,VALID,1.1046,
2003-08-12, 01:45:00,VALID,918.64,VALID,0,VALID,99.9532,VALID,0.0169808,VALID,19.4645,VALID,97,VALID,1.16447,
2003-08-12, 01:46:00,VALID,918.639,VALID,0,VALID,99.9608,VALID,0.0169808,VALID,19.4645,VALID,96,VALID,0.825802,
2003-08-12, 01:47:00,VALID,918.609,VALID,0,VALID,99.9621,VALID,0.0169808,VALID,19.4712,VALID,112,VALID,1.02138,
2003-08-12, 01:48:00,VALID,918.604,VALID,0,VALID,99.9583,VALID,0,VALID,19.4546,VALID,129,VALID,0.704241,
2003-08-12, 01:49:00,VALID,918.586,VALID,0,VALID,99.9748,VALID,0.0509425,VALID,19.4578,VALID,104,VALID,0.495982,
2003-08-12, 01:50:00,VALID,918.568,VALID,0,VALID,99.9758,VALID,0.0339617,VALID,19.471,VALID,132,VALID,1.15765,
2003-08-12, 01:51:00,VALID,918.528,VALID,0,VALID,99.9822,VALID,0,VALID,19.458,VALID,133,VALID,1.04275,
2003-08-12, 01:52:00,VALID,918.511,VALID,0,VALID,99.9837,VALID,0.0849042,VALID,19.458,VALID,129,VALID,1.20765,
2003-08-12, 01:53:00,VALID,918.484,VALID,0,VALID,99.9647,VALID,0.0169808,VALID,19.4481,VALID,137,VALID,1.09312,
2003-08-12, 01:54:00,VALID,918.439,VALID,0,VALID,99.9596,VALID,0,VALID,19.465,VALID,124,VALID,1.12007,
2003-08-12, 01:55:00,VALID,918.439,VALID,0,VALID,99.9774,VALID,0.0339617,VALID,19.4647,VALID,133,VALID,1.18638,
2003-08-12, 01:56:00,VALID,918.415,VALID,0,VALID,99.9723,VALID,0,VALID,19.4613,VALID,134,VALID,1.15067,
2003-08-12, 01:57:00,VALID,918.396,VALID,0,VALID,99.9735,VALID,0.0339617,VALID,19.4511,VALID,144,VALID,1.36258,
2003-08-12, 01:58:00,VALID,918.386,VALID,0,VALID,99.9647,VALID,0.0509425,VALID,19.4516,VALID,129,VALID,0.970486,
2003-08-12, 01:59:00,VALID,918.36,VALID,0,VALID,99.9672,VALID,0.0339617,VALID,19.4613,VALID,126,VALID,0.833676,
2003-08-12, 02:00:00,VALID,918.341,VALID,0,VALID,99.9596,VALID,0.0679233,VALID,19.458,VALID,134,VALID,0.882179,
2003-08-12, 02:01:00,VALID,918.331,VALID,0,VALID,99.9647,VALID,0.0679233,VALID,19.4543,VALID,129,VALID,0.97903,
2003-08-12, 02:02:00,VALID,918.322,VALID,0,VALID,99.9608,VALID,0.0169808,VALID,19.461,VALID,132,VALID,1.02165,
2003-08-12, 02:03:00,VALID,918.314,VALID,0,VALID,99.9532,VALID,0.0169808,VALID,19.465,VALID,105,VALID,0.454688,
2003-08-12, 02:04:00,VALID,918.314,VALID,0,VALID,99.9583,VALID,0.0169808,VALID,19.4714,VALID,120,VALID,0.918069,
2003-08-12, 02:05:00,VALID,918.307,VALID,0,VALID,99.9456,VALID,0,VALID,19.4583,VALID,118,VALID,1.25239,
2003-08-12, 02:06:00,VALID,918.299,VALID,0,VALID,99.9379,VALID,0.0339617,VALID,19.4618,VALID,139,VALID,0.998561,
2003-08-12, 02:07:00,VALID,918.296,VALID,0,VALID,99.929,VALID,0.0169808,VALID,19.4643,VALID,128,VALID,0.9356,
2003-08-12, 02:08:00,VALID,918.286,VALID,0,VALID,99.9189,VALID,0.0339617,VALID,19.4647,VALID,143,VALID,1.37171,
2003-08-12, 02:09:00,VALID,918.262,VALID,0,VALID,99.8947,VALID,0.0169808,VALID,19.4682,VALID,133,VALID,1.20692,
2003-08-12, 02:10:00,VALID,918.25,VALID,0,VALID,99.8833,VALID,0.0169808,VALID,19.4548,VALID,135,VALID,1.24129,
2003-08-12, 02:11:00,VALID,918.235,VALID,0,VALID,99.868,VALID,0.0509425,VALID,19.4546,VALID,129,VALID,0.90605,
2003-08-12, 02:12:00,VALID,918.209,VALID,0,VALID,99.868,VALID,0.0169808,VALID,19.4583,VALID,146,VALID,0.615234,
2003-08-12, 02:13:00,VALID,918.186,VALID,0,VALID,99.8604,VALID,0.0339617,VALID,19.4576,VALID,129,VALID,0.902138,
2003-08-12, 02:14:00,VALID,918.163,VALID,0,VALID,99.8375,VALID,0.0509425,VALID,19.4484,VALID,132,VALID,1.15266,
2003-08-12, 02:15:00,VALID,918.122,VALID,0,VALID,99.8171,VALID,0.0169808,VALID,19.4317,VALID,116,VALID,1.12562,
2003-08-12, 02:16:00,VALID,918.099,VALID,0,VALID,99.7866,VALID,0.0339617,VALID,19.4325,VALID,114,VALID,0.838393,
2003-08-12, 02:17:00,VALID,918.072,VALID,0,VALID,99.765,VALID,0.0169808,VALID,19.426,VALID,109,VALID,0.843527,
2003-08-12, 02:18:00,VALID,918.057,VALID,0,VALID,99.7116,VALID,0,VALID,19.4029,VALID,102,VALID,0.961739,
2003-08-12, 02:19:00,VALID,918.044,VALID,0,VALID,99.6684,VALID,0.0339617,VALID,19.4034,VALID,114,VALID,0.655165,
2003-08-12, 02:20:00,VALID,918.05,VALID,0,VALID,99.5628,VALID,0.0339617,VALID,19.3962,VALID,109,VALID,1.03063,
2003-08-12, 02:21:00,VALID,918.055,VALID,0,VALID,99.4598,VALID,0.0339617,VALID,19.3833,VALID,94,VALID,0.986909,
2003-08-12, 02:22:00,VALID,918.061,VALID,0,VALID,99.4229,VALID,0.0169808,VALID,19.3801,VALID,90,VALID,0.930921,
2003-08-12, 02:23:00,VALID,918.063,VALID,0,VALID,99.3543,VALID,0.0169808,VALID,19.39,VALID,89,VALID,0.784821,
2003-08-12, 02:24:00,VALID,918.057,VALID,0,VALID,99.2678,VALID,0.0169808,VALID,19.4094,VALID,82,VALID,0.83817,
2003-08-12, 02:25:00,VALID,918.047,VALID,0,VALID,99.2119,VALID,-0.0679233,VALID,19.4036,VALID,65,VALID,0.688702,
2003-08-12, 02:26:00,VALID,918.026,VALID,0,VALID,99.1305,VALID,-0.0509425,VALID,19.4242,VALID,63,VALID,0.722005,
2003-08-12, 02:27:00,VALID,917.997,VALID,0,VALID,99.0682,VALID,-0.0849042,VALID,19.4439,VALID,67,VALID,0.620271,
2003-08-12, 02:28:00,VALID,917.975,VALID,0,VALID,98.9397,VALID,-0.0339617,VALID,19.417,VALID,78,VALID,0.682855,
2003-08-12, 02:29:00,VALID,917.954,VALID,0,VALID,98.7846,VALID,-0.0679233,VALID,19.4145,VALID,95,VALID,0.457031,
2003-08-12, 02:30:00,VALID,917.927,VALID,0,VALID,98.7121,VALID,-0.0849042,VALID,19.4081,VALID,117,VALID,0.628571,
2003-08-12, 02:31:00,VALID,917.913,VALID,0,VALID,98.5964,VALID,-0.0509425,VALID,19.4076,VALID,135,VALID,0.795089,
2003-08-12, 02:32:00,VALID,917.917,VALID,0,VALID,98.5163,VALID,-0.0509425,VALID,19.4078,VALID,139,VALID,0.702324,
2003-08-12, 02:33:00,VALID,917.917,VALID,0,VALID,98.4896,VALID,-0.101885,VALID,19.4178,VALID,137,VALID,1.0128,
2003-08-12, 02:34:00,VALID,917.921,VALID,0,VALID,98.5366,VALID,-0.101885,VALID,19.4141,VALID,143,VALID,0.854852,
2003-08-12, 02:35:00,VALID,917.918,VALID,0,VALID,98.5939,VALID,-0.0679233,VALID,19.4272,VALID,129,VALID,1.04751,
2003-08-12, 02:36:00,VALID,917.898,VALID,0,VALID,98.6485,VALID,-0.0509425,VALID,19.4145,VALID,121,VALID,0.631785,
2003-08-12, 02:37:00,VALID,917.888,VALID,0,VALID,98.66,VALID,-0.101885,VALID,19.4009,VALID,121,VALID,0.990402,
2003-08-12, 02:38:00,VALID,917.851,VALID,0,VALID,98.5926,VALID,-0.0849042,VALID,19.3949,VALID,119,VALID,1.0221,
2003-08-12, 02:39:00,VALID,917.814,VALID,0,VALID,98.5519,VALID,-0.101885,VALID,19.3686,VALID,138,VALID,1.1252,
2003-08-12, 02:40:00,VALID,917.782,VALID,0,VALID,98.4654,VALID,0,VALID,19.3713,VALID,137,VALID,1.26476,
2003-08-12, 02:41:00,VALID,917.738,VALID,0,VALID,98.3205,VALID,0.0169808,VALID,19.3547,VALID,141,VALID,1.125,
2003-08-12, 02:42:00,VALID,917.7,VALID,0,VALID,98.1908,VALID,0.0169808,VALID,19.345,VALID,142,VALID,1.20798,
2003-08-12, 02:43:00,VALID,917.665,VALID,0,VALID,98.0687,VALID,0,VALID,19.3418,VALID,137,VALID,1.2977,
2003-08-12, 02:44:00,VALID,917.652,VALID,0,VALID,97.8296,VALID,0.0169808,VALID,19.3381,VALID,143,VALID,1.60536,
2003-08-12, 02:45:00,VALID,917.616,VALID,0,VALID,97.6745,VALID,0.0339617,VALID,19.348,VALID,146,VALID,1.35201,
2003-08-12, 02:46:00,VALID,917.608,VALID,0,VALID,97.4888,VALID,0.0169808,VALID,19.3579,VALID,146,VALID,1.96615,
2003-08-12, 02:47:00,VALID,917.578,VALID,0,VALID,97.3655,VALID,0,VALID,19.3738,VALID,132,VALID,1.59961,
2003-08-12, 02:48:00,VALID,917.583,VALID,0,VALID,97.2612,VALID,0,VALID,19.3835,VALID,124,VALID,1.35424,
2003-08-12, 02:49:00,VALID,917.579,VALID,0,VALID,97.1976,VALID,0,VALID,19.3868,VALID,118,VALID,1.23036,
2003-08-12, 02:50:00,VALID,917.581,VALID,0,VALID,97.1328,VALID,0.0169808,VALID,19.3905,VALID,116,VALID,1.21937,
2003-08-12, 02:51:00,VALID,917.588,VALID,0,VALID,97.0234,VALID,0,VALID,19.4036,VALID,121,VALID,1.25915,
2003-08-12, 02:52:00,VALID,917.589,VALID,0,VALID,97.0425,VALID,0.0169808,VALID,19.3935,VALID,85,VALID,0.811607,
2003-08-12, 02:53:00,VALID,917.593,VALID,0,VALID,97.0972,VALID,0,VALID,19.3937,VALID,68,VALID,0.559696,
2003-08-12, 02:54:00,VALID,917.587,VALID,0,VALID,97.1595,VALID,0.0169808,VALID,19.4061,VALID,52,VALID,0.878038,
2003-08-12, 02:55:00,VALID,917.576,VALID,0,VALID,96.9459,VALID,-0.0679233,VALID,19.4011,VALID,95,VALID,1.09766,
2003-08-12, 02:56:00,VALID,917.554,VALID,0,VALID,96.9281,VALID,-0.101885,VALID,19.3847,VALID,41,VALID,0.988598,
2003-08-12, 02:57:00,VALID,917.535,VALID,0,VALID,96.8696,VALID,-0.0849042,VALID,19.3977,VALID,78,VALID,1.32237,
2003-08-12, 02:58:00,VALID,917.526,VALID,0,VALID,96.7907,VALID,-0.101885,VALID,19.3847,VALID,110,VALID,1.0375,
2003-08-12, 02:59:00,VALID,917.504,VALID,0,VALID,96.7882,VALID,-0.0679233,VALID,19.3917,VALID,110,VALID,0.76183,
2003-08-12, 03:00:00,VALID,917.472,VALID,0,VALID,96.7488,VALID,-0.0849042,VALID,19.3914,VALID,146,VALID,1.33494,
2003-08-12, 03:01:00,VALID,917.467,VALID,0,VALID,96.6941,VALID,-0.0849042,VALID,19.3785,VALID,149,VALID,1.39258,
2003-08-12, 03:02:00,VALID,917.449,VALID,0,VALID,96.6432,VALID,-0.101885,VALID,19.382,VALID,140,VALID,1.26069,
2003-08-12, 03:03:00,VALID,917.441,VALID,0,VALID,96.4944,VALID,-0.101885,VALID,19.3592,VALID,134,VALID,1.48754,
2003-08-12, 03:04:00,VALID,917.421,VALID,0,VALID,96.4461,VALID,-0.0849042,VALID,19.3885,VALID,133,VALID,1.50452,
2003-08-12, 03:05:00,VALID,917.405,VALID,0,VALID,96.4156,VALID,-0.101885,VALID,19.3917,VALID,129,VALID,0.961607,
2003-08-12, 03:06:00,VALID,917.392,VALID,0,VALID,96.4207,VALID,-0.0849042,VALID,19.4044,VALID,130,VALID,1.26897,
2003-08-12, 03:07:00,VALID,917.373,VALID,0,VALID,96.3978,VALID,-0.0679233,VALID,19.4011,VALID,131,VALID,1.16286,
2003-08-12, 03:08:00,VALID,917.367,VALID,0,VALID,96.3202,VALID,-0.0679233,VALID,19.3947,VALID,115,VALID,1.22483,
2003-08-12, 03:09:00,VALID,917.356,VALID,0,VALID,96.2694,VALID,-0.0849042,VALID,19.3947,VALID,106,VALID,1.36575,
2003-08-12, 03:10:00,VALID,917.345,VALID,0,VALID,96.2668,VALID,0.0169808,VALID,19.39,VALID,103,VALID,0.882813,
2003-08-12, 03:11:00,VALID,917.335,VALID,0,VALID,96.1409,VALID,0.0169808,VALID,19.4031,VALID,100,VALID,0.824013,
2003-08-12, 03:12:00,VALID,917.332,VALID,0,VALID,96.1066,VALID,0.0339617,VALID,19.4031,VALID,114,VALID,0.841295,
2003-08-12, 03:13:00,VALID,917.33,VALID,0,VALID,96.0417,VALID,0,VALID,19.4024,VALID,135,VALID,0.594643,
2003-08-12, 03:14:00,VALID,917.314,VALID,0,VALID,95.9922,VALID,0,VALID,19.4061,VALID,141,VALID,0.702724,
2003-08-12, 03:15:00,VALID,917.294,VALID,0,VALID,96.0239,VALID,0,VALID,19.4064,VALID,149,VALID,0.478082,
2003-08-12, 03:16:00,VALID,917.29,VALID,0,VALID,95.9235,VALID,0.0169808,VALID,19.4034,VALID,136,VALID,0.934827,
2003-08-12, 03:17:00,VALID,917.27,VALID,0,VALID,95.9349,VALID,0.0169808,VALID,19.4031,VALID,148,VALID,0.730152,
2003-08-12, 03:18:00,VALID,917.239,VALID,0,VALID,95.954,VALID,0,VALID,19.4096,VALID,154,VALID,0.733141,
2003-08-12, 03:19:00,VALID,917.225,VALID,0,VALID,95.8981,VALID,0.0339617,VALID,19.4064,VALID,148,VALID,0.865179,
2003-08-12, 03:20:00,VALID,917.198,VALID,0,VALID,95.8319,VALID,0.0169808,VALID,19.4094,VALID,147,VALID,1.18884,
2003-08-12, 03:21:00,VALID,917.187,VALID,0,VALID,95.762,VALID,0.0509425,VALID,19.4002,VALID,144,VALID,1.1855,
2003-08-12, 03:22:00,VALID,917.176,VALID,0,VALID,95.6399,VALID,0.0509425,VALID,19.3833,VALID,149,VALID,1.51693,
2003-08-12, 03:23:00,VALID,917.156,VALID,0,VALID,95.5827,VALID,0.0509425,VALID,19.3964,VALID,152,VALID,1.47882,
2003-08-12, 03:24:00,VALID,917.153,VALID,0,VALID,95.5852,VALID,0.0169808,VALID,19.39,VALID,146,VALID,1.12416,
2003-08-12, 03:25:00,VALID,917.143,VALID,0,VALID,95.7391,VALID,-0.0339617,VALID,19.3944,VALID,156,VALID,0.985609,
2003-08-12, 03:26:00,VALID,917.126,VALID,0,VALID,95.8421,VALID,-0.0679233,VALID,19.3847,VALID,155,VALID,1.06987,
2003-08-12, 03:27:00,VALID,917.106,VALID,0,VALID,95.996,VALID,-0.0339617,VALID,19.3852,VALID,163,VALID,1.32567,
2003-08-12, 03:28:00,VALID,917.091,VALID,0,VALID,96.1473,VALID,-0.0849042,VALID,19.3656,VALID,156,VALID,1.32272,
2003-08-12, 03:29:00,VALID,917.079,VALID,0,VALID,96.3215,VALID,-0.0849042,VALID,19.3557,VALID,153,VALID,1.44965,
2003-08-12, 03:30:00,VALID,917.064,VALID,0,VALID,96.4334,VALID,-0.101885,VALID,19.3299,VALID,162,VALID,1.46628,
2003-08-12, 03:31:00,VALID,917.044,VALID,0,VALID,96.5237,VALID,-0.0509425,VALID,19.3137,VALID,157,VALID,1.31736,
2003-08-12, 03:32:00,VALID,917.028,VALID,0,VALID,96.6661,VALID,-0.0679233,VALID,19.301,VALID,155,VALID,1.32689,
2003-08-12, 03:33:00,VALID,916.998,VALID,0,VALID,96.8022,VALID,-0.101885,VALID,19.3047,VALID,162,VALID,1.06071,